Miscellaneous Local Product
Issued by NWS North Platte, NE

Home | Current Version | Previous Version | Text Only | Print | Product List | Glossary On
Versions: 1 2 3 4 5 6 7 8 9 10 11 12 13 14 15 16 17 18 19 20 21 22 23 24 25 26 27 28 29 30 31 32 33 34 35 36 37 38 39 40 41 42 43 44 45 46 47 48 49 50
000
AXUS43 KLBF 121410
MISLBF


WESTERN AND NORTH CENTRAL NEBRASKA HOURLY WEATHER ROUNDUP
NATIONAL WEATHER SERVICE NORTH PLATTE NE
900 AM CDT SAT JUL 12 2014

***STATIONS NOT REPORTING VARIABLES SUCH AS SKY/WEATHER OR
PRESSURE ARE PROVIDED BY THE NEBRASKA DEPARTMENT OF
ROADS...RAWS...AND APRS NETWORKS...AND ARE NOT UNDER
NATIONAL WEATHER SERVICE QUALITY CONTROL***

...OBSERVATIONS IN AND NEAR THE EASTERN PANHANDLE OF NEBRASKA...

CITY           SKY/WX    TMP DP  RH WIND       PRES   REMARKS
PINE RIDGE     CLOUDY    64  62  93 S3        30.17R
CHADRON        MOSUNNY   67  61  81 S3        30.16R
ALLIANCE       CLOUDY    62  59  90 N9G18     30.19R
SIDNEY         CLOUDY    65  61  87 N13       30.20R
WHITECLAY        N/A     64  60  85 CALM        N/A
RUSHVILLE        N/A     64  61  91 N12         N/A
GORDON           N/A     66  65  97 N10         N/A
CRESCENT LAKE    N/A     64  60  87 N12         N/A
LISCO            N/A     69  61  75 W3          N/A
BIG SPRINGS      N/A     65  63  93 CALM        N/A
$$

...OBSERVATIONS IN NORTH CENTRAL NEBRASKA...

CITY           SKY/WX    TMP DP  RH WIND       PRES   REMARKS
VALENTINE      CLOUDY    70  67  90 N10       30.11R
THEDFORD       CLOUDY    69  67  94 N7        30.12R
AINSWORTH      CLOUDY    66  66  99 E3        30.10S
O`NEILL        CLOUDY    67  64  87 NW9       30.09R
ORD            CLOUDY    70  66  87 N7        30.04R
BROKEN BOW     CLOUDY    72  69  90 NE7       30.05R
BROWNLEE         N/A     74  65  74 NW15        N/A
SPRINGVIEW       N/A     67  65  94 CALM        N/A
ROSE             N/A     71  71  99 CALM        N/A
NEWPORT          N/A     68  68  98 NE3         N/A
SARGENT          N/A     69  67  93 CALM        N/A
COMSTOCK         N/A     76  73  88 E3          N/A
CHAMBERS         N/A     70  68  94 W6          N/A
$$

...OBSERVATIONS IN SOUTHWEST NEBRASKA AND FAR NORTHEAST COLORADO...

CITY           SKY/WX    TMP DP  RH WIND       PRES   REMARKS
WRAY           CLOUDY    68  66  94 NW8       30.13S
HOLYOKE        CLOUDY    68  63  83 N7        30.14S
IMPERIAL       CLOUDY    68  66  93 NW14      30.09S FOG
OGALLALA       CLOUDY    65  63  91 NW10      30.12S
NORTH PLATTE   CLOUDY    71  66  84 N10       30.09R
MCCOOK         PTSUNNY   76  70  82 N7        30.03R
LEXINGTON      PTSUNNY   74  71  90 E7        30.02R
PAXTON           N/A     67  65  95 CALM        N/A
SUTHERLAND       N/A     72  70  94 NE7         N/A
BRADY            N/A     71  67  87 CALM        N/A
GOTHENBURG       N/A     72  67  83 CALM        N/A
CALLAWAY         N/A     67  66  98 N5          N/A
$$

...NORTH PLATTE AREA...

CITY           SKY/WX    TMP DP  RH WIND       PRES   REMARKS
AIRPORT        CLOUDY    71  66  84 N10       30.09R
INDIAN HILLS     N/A     71  68  90 CALM        N/A
$$

...SOME WEATHER OBSERVATIONS FROM AROUND THE REGION...

CITY           SKY/WX    TMP DP  RH WIND       PRES   REMARKS
DENVER         PTSUNNY   71  60  68 N7        30.23R
LARAMIE        CLOUDY    57  54  89 MISG      30.35R
CHEYENNE       MOSUNNY   61  57  87 W6        30.28R
SCOTTSBLUFF    CLOUDY    64  61  90 W5        30.21R
RAPID CITY     CLOUDY    61  59  93 N8        30.17R
PIERRE         CLOUDY    65  61  87 NE6       30.09R
WINNER         CLOUDY    69  64  84 N14       30.10R
SIOUX FALLS    CLOUDY    72  66  81 NW12      30.04R
OMAHA          CLOUDY    75  68  78 SE8       29.99S
GRAND ISLAND   CLOUDY    73  67  81 S6        30.00R
KANSAS CITY    MOSUNNY   79  68  69 SW12      30.05S
WICHITA        MOSUNNY   79  65  62 SW12      30.09R
HAYS           SUNNY     79  59  50 SW17G24   30.03F
LIBERAL        SUNNY     79  63  57 S17       30.14R
GOODLAND       MOSUNNY   74  65  73 N8        30.10R
$$



USA.gov is the U.S. government's official web portal to all federal, state and local government web resources and services.